Starlink 30766

operational
NORAD ID: 58125 Int'l Des: 2023-162 Owner: SPXS Country: US Constellation: starlink
LEOCIRCULAR

About Starlink 30766

Description loading...

Live Position

Loading 3D Globe...

Upcoming Passes

Altitude History

Altitude vs Time

uPlot chart will show altitude changes over time

Two-Line Element Set

1 58125U 23162H 25304.54193740 .00000233 00000-0 32292-4 0 9992
2 58125 43.0034 114.7716 0001149 249.4900 110.5819 15.02536516112875
Epoch: Oct 31, 2025 • Age: 11 hours

Current Status

Altitude 558.6 km
Velocity 7.58 km/s
Sub-Earth Point 6.05°N, 74.97°E
Launch Date Oct 22, 2023
Age 2 years
Type internet

Technical Details

Classification Payload
Mass 730.00 kg
Dry Mass 700.00 kg
Total Mass 730.00 kg
Length 0.30 m
Diameter 4.10 m
Span 29.00 m
Shape Box + pan
Manufacturer SPXS
Bus Type Starlink V2M
Phase Status In Orbit
Owner/State SPXS/US

Large Constellations

Loading constellations...